Location: Old Broadwell Mill Observatory
(33.8015°N, 85.8137°W)
Time: 15:56:23
(UTC-05:00)

Daily predictions for brighter satellites

Satellite Brightness Start Highest point End
(mag) Time Altitude Azimuth Time Altitude Azimuth Time Altitude Azimuth
SEDSat Delta rocket 4.1 19:39:09 10° SW 19:43:50 38° SSE 19:49:10 10° E
Cosmos 1933 Rocket 4.2 19:40:38 10° NNW 19:45:04 63° W 19:49:27 10° S
OTV 4 0.4 19:43:07 10° WNW 19:45:59 75° SSW 19:48:50 10° ESE
Cosmos 2227 Rocket 3.5 19:41:39 10° NW 19:46:59 43° WSW 19:52:17 10° S
Cosmos 1331 Rocket 4.3 19:42:52 10° SSW 19:48:08 76° WNW 19:53:28 10° NNE
CZ-2D R/B 4.2 19:45:02 10° SE 19:48:29 31° ENE 19:51:57 10° N
Cosmos 1825 4.4 19:50:28 10° ENE 19:50:38 10° ENE 19:50:47 10° ENE
SL-16 R/B 3.0 19:47:26 10° SSE 19:52:11 28° ESE 19:56:57 10° NE
FengYun 1-2 T 4.3 19:49:31 10° SSE 19:55:10 81° ENE 20:00:50 10° N
Nadezhda 4 Rocket 4.1 19:49:35 10° N 19:55:49 64° E 20:02:04 10° SSE
GPS 2-04 Rocket1 3.4 19:54:44 10° W 19:58:04 38° SSW 20:01:33 10° SE
Hubble Space Telescope 3.4 19:58:18 10° SW 19:59:02 10° SSW 19:59:45 10° SSW
Cosmos 1634 Rocket 4.3 19:54:00 10° SSE 19:59:54 44° E 20:05:50 10° NNE
Cosmos 1707 Rocket 3.7 19:57:45 10° S 20:02:06 56° E 20:06:27 10° NNE
HJ-1C 3.8 19:59:53 10° S 20:03:18 70° W 20:06:45 10° NNW
USA 186 2.5 20:02:40 12° SE 20:04:37 26° ENE 20:07:02 10° NNE
Cosmos 1092 Rocket 4.2 19:59:21 10° N 20:05:33 54° E 20:11:43 10° SSE
Lacrosse 4 Rocket 3.4 20:04:00 10° NNE 20:06:30 15° NE 20:08:46 11° E
Helios 1B rocket 3.1 20:02:54 10° NNE 20:06:37 33° E 20:10:19 10° SSE
ALOS 3.1 20:03:39 10° S 20:08:13 55° W 20:12:48 10° NNW
CENTAUR R/B 4.4 20:04:55 10° WSW 20:10:15 32° NW 20:16:12 10° NNE
Cosmos 1939 Rocket 4.4 20:08:25 13° ESE 20:10:30 19° ENE 20:13:22 10° NNE
ERBS 4.3 20:08:24 10° N 20:10:46 17° NE 20:12:44 12° E
Gblst 52 Del rocket 4.2 20:05:54 10° NW 20:11:46 78° NE 20:16:27 14° SE
Cosmos 1486 Rocket 4.2 20:09:18 10° N 20:14:25 54° ENE 20:19:20 11° SSE
Resurs 1-3 3.6 20:15:33 10° SSE 20:19:55 88° E 20:24:20 10° NNW
Cosmos 1869 Rocket 3.6 20:19:37 10° N 20:24:07 89° W 20:28:34 10° S
Cosmos 2227 4.3 20:19:01 10° NNW 20:24:41 61° ENE 20:29:15 16° SE
Atlas Centaur 2 3.2 20:19:04 10° SW 20:25:30 43° SSE 20:31:32 16° E
Cosmos 1408 3.6 20:23:05 10° NNE 20:26:20 28° E 20:27:28 24° ESE
SL-8 R/B 4.2 20:25:53 10° WNW 20:30:34 54° SW 20:33:57 18° SSE
Cosmos 2242 Rocket 3.6 20:29:12 10° S 20:33:39 60° E 20:38:05 10° NNE
Cosmos 1455 3.8 20:31:32 10° SSW 20:35:06 37° W 20:38:39 10° N
Helios 1A 2.9 20:36:34 19° SSE 20:39:32 71° ENE 20:43:47 10° N
Cosmos 1627 Rocket 4.4 20:33:35 10° N 20:39:45 65° E 20:45:01 14° SSE
CZ-4B DEB 4.4 20:39:11 27° SSE 20:40:59 69° ENE 20:44:31 10° N
Cosmos 2279 Rocket 4.1 20:35:03 10° SSE 20:41:06 56° E 20:47:11 10° NNE
Cosmos 2195 Rocket 4.4 20:37:11 10° N 20:43:18 72° E 20:48:44 14° SSE
Meteor 2-20 4.4 20:39:00 10° N 20:45:09 88° E 20:51:18 10° S
Cosmos 1503 Rocket 4.2 20:40:40 10° N 20:45:48 52° ENE 20:48:09 30° SE
DELTA 2 R/B (1) 3.7 20:41:10 10° WNW 20:46:46 69° SSW 20:49:34 30° SE
CZ-3B DEB 2.6 20:45:07 10° WNW 20:47:39 19° WSW 20:48:45 14° SSW
Cosmos 1869 4.0 20:44:11 10° SSW 20:48:02 54° W 20:51:54 10° N
Cosmos 1354 Rocket 4.1 20:44:35 10° N 20:49:47 59° ENE 20:52:09 31° SE
Resurs 01 Rocket 3.3 20:47:07 10° SSW 20:51:06 33° W 20:55:07 10° NNW
SJ-11-01 4.2 20:51:19 29° SSE 20:53:38 70° ENE 20:58:18 10° N
OAO 3 Rocket 3.3 20:49:15 10° W 20:54:10 77° N 20:56:38 29° E
CZ-4B DEB 2.4 20:54:21 71° SSE 20:54:38 85° E 20:57:41 10° N
YAOGAN 6 3.4 20:56:56 35° ENE 20:56:56 35° ENE 21:00:01 10° N
FALCON 9 R/B 1.3 20:59:06 10° W 21:00:47 41° WNW 21:00:47 41° WNW
Cosmos 1428 Rocket 4.5 20:56:11 10° N 21:02:13 60° E 21:04:53 33° SSE
Meteor 1-29 3.9 20:59:42 10° N 21:03:04 48° WNW 21:06:23 10° SSW
Cosmos 2180 Rocket 4.4 20:56:56 10° S 21:03:15 71° E 21:09:34 10° N
SPOT 5 4.3 21:04:10 22° ENE 21:04:10 22° ENE 21:07:35 10° NNE
Cosmos 2263 Rocket 2.6 21:02:01 10° N 21:07:19 43° ENE 21:08:25 39° E
Meteor 2-10 Rocket 3.9 21:05:37 35° SSE 21:07:44 53° E 21:13:22 10° NNE
Cosmos 2322 Rocket 2.8 21:02:45 10° SW 21:08:14 56° WNW 21:13:45 10° NNE
Envisat 3.2 21:05:47 23° S 21:08:56 70° WSW 21:14:00 10° NNW
Cosmos 220 Rocket 4.2 21:07:44 10° NNW 21:12:11 72° WSW 21:13:27 45° S
Cosmos 1933 3.3 21:11:29 47° SSW 21:12:36 85° W 21:16:39 10° N
Cosmos 2360 Rocket 2.1 21:15:49 30° S 21:18:34 64° ESE 21:24:10 10° NNE
USA 234 3.2 21:22:54 45° SE 21:25:11 85° NE 21:31:45 10° NW
Cosmos 1825 3.4 21:22:50 10° NNW 21:26:22 38° W 21:27:16 32° SW
Cosmos 2322 3.6 21:25:27 55° SSE 21:26:26 64° ESE 21:32:05 10° NNE
CZ-3 Stage 3 4.5 21:09:20 10° WNW 21:27:10 26° WSW 21:31:42 15° SSW
NOAA 11 4.3 21:28:03 55° E 21:28:26 56° ENE 21:33:48 10° N
SEDSat Delta rocket 3.6 21:24:27 10° WSW 21:29:57 69° S 21:30:35 63° SE
Cosmos 1908 Rocket 4.3 21:25:44 10° N 21:28:49 40° NNE 21:28:49 40° NNE
SL-16 R/B 3.9 21:31:05 10° SW 21:36:07 33° WNW 21:41:11 10° N
Cosmos 1862 4.4 21:36:20 10° NNW 21:40:07 41° W 21:40:18 41° W
MetOp-B 4.0 21:42:09 74° ENE 21:42:09 74° ENE 21:47:27 10° N
ERS-1 Rocket 3.0 21:42:09 66° SW 21:42:36 71° WSW 21:47:36 10° NNW
Lacrosse 4 Rocket 2.3 21:41:14 10° NW 21:45:08 45° W 21:45:08 45° W
ATLAS 5 CENTAUR R/B 2.7 21:41:33 10° NNW 21:47:31 51° NE 21:47:45 51° ENE
ARGOS 3.3 21:52:58 62° NNE 21:52:58 62° NNE 21:57:40 10° N
Milstar 3 3.2 21:46:34 10° W 21:53:09 44° SSW 21:53:09 44° SSW
SeaSat 1 3.1 21:57:02 48° NNE 21:57:02 48° NNE 22:00:51 10° NNW
Terra 3.9 22:10:04 19° NNE 22:10:04 19° NNE 22:11:42 10° N
USA 229 DEB 3.8 22:02:49 10° SW 22:09:35 70° WNW 22:16:29 10° NNE
USA 229 3.8 22:02:53 10° SW 22:09:40 71° WNW 22:16:34 10° NNE
Cosmos 1844 Rocket 4.1 22:05:45 10° N 22:09:04 26° NNE 22:09:04 26° NNE
Atlas Centaur 2 3.0 22:07:21 10° WSW 22:14:12 65° SSW 22:14:12 65° SSW
Cosmos 2266 Rocket 4.2 22:11:52 10° NNW 22:18:05 65° W 22:18:12 65° W
MOS 1-B Rocket 4.2 22:22:53 66° WNW 22:22:53 66° WNW 22:28:02 10° NNW
Cosmos 2219 Rocket 4.3 22:28:37 17° NNE 22:28:37 17° NNE 22:29:49 10° NNE
H-2A R/B 3.4 22:33:27 35° NNW 22:33:27 35° NNW 22:36:17 10° NNW
CZ-4C R/B 4.4 22:26:09 10° N 22:31:32 22° NE 22:32:09 22° NE
COSMOS 2428 4.0 22:52:07 36° NNW 22:52:07 36° NNW 22:55:55 10° N
Cosmos 2263 Rocket 4.2 22:46:52 10° NW 22:50:08 20° W 22:50:08 20° W
H-2A R/B 3.8 21:58:05 10° W 22:51:40 64° SSW 22:51:40 64° SSW
Cosmos 2333 Rocket 4.3 23:34:09 23° N 23:34:09 23° N 23:36:24 10° N
ATLAS 5 CENTAUR R/B 4.5 23:26:58 10° WNW 23:29:19 19° WNW 23:29:19 19° WNW
Cosmos 2237 Rocket 4.4 23:41:33 20° N 23:41:33 20° N 23:43:13 10° NNE
Cosmos 2278 Rocket 4.3 23:40:04 10° NNW 23:41:58 22° NNW 23:41:58 22° NNW
